{"data":{"norad_id":46167,"epoch":"2026-05-25T02:31:23.207808Z","epoch_age_seconds":61882,"freshness":"FRESH","line1":"1 46167U 20057BC  26145.10512972  .00085071  00000+0  70871-3 0  9999","line2":"2 46167  53.0419 280.3996 0001119 346.0315  14.0670 15.69402859318334","mean_motion":15.69402859,"eccentricity":0.0001119,"inclination_deg":53.0419,"raan_deg":280.3996,"arg_perigee_deg":346.0315,"mean_anomaly_deg":14.067,"bstar":0.00070871,"rev_number":31833,"period_min":91.754643604864,"perigee_km":359.85174841181,"apogee_km":361.35987905353,"semimajor_km":6738.7428137327,"source":"CELESTRAK","updated_at":"2026-05-25T13:38:16.468460Z"}}